When you browse on this site, cookies collect data to enhance your experience and personalize the content and advertising you see.
Visit our Privacy Policy to learn more. By continuing to use the site, you agree to this use of cookies and data.

Hourly Weather Lunsar

Today, 6 July, Monday

Time Temperature Precipitation Wind Pressure Humidity
00:00 +25°C° 0 mm 1 mps 754 mmHg 96%
01:00 +25°C° 0 mm 1 mps 753 mmHg 96%
02:00 +25°C° 0 mm 1 mps 753 mmHg 96%
03:00 +24°C° 0 mm 1 mps 753 mmHg 96%
04:00 +24°C° 0 mm 1 mps 753 mmHg 97%
05:00 +24°C° 0 mm 1 mps 753 mmHg 97%
06:00 +25°C° 0.1 mm 1 mps 753 mmHg 94%
07:00 +26°C° 0.1 mm 1 mps 754 mmHg 92%
08:00 +27°C° 0.1 mm 1 mps 754 mmHg 89%
09:00 +28°C° 0.2 mm 1 mps 754 mmHg 86%
10:00 +28°C° 0.2 mm 1 mps 754 mmHg 82%
11:00 +29°C° 0.2 mm 2 mps 754 mmHg 78%
12:00 +29°C° 1 mm 2 mps 753 mmHg 80%
13:00 +29°C° 1 mm 2 mps 752 mmHg 82%
14:00 +29°C° 1 mm 2 mps 752 mmHg 83%
15:00 +29°C° 1.5 mm 2 mps 752 mmHg 86%
16:00 +28°C° 1.5 mm 2 mps 752 mmHg 89%
17:00 +27°C° 1.5 mm 2 mps 752 mmHg 92%
18:00 +27°C° 0.4 mm 2 mps 752 mmHg 93%
19:00 +26°C° 0.4 mm 1 mps 753 mmHg 95%
20:00 +25°C° 0.4 mm 1 mps 753 mmHg 97%
21:00 +25°C° 0.1 mm 1 mps 753 mmHg 97%
22:00 +25°C° 0.1 mm 1 mps 754 mmHg 97%
23:00 +25°C° 0.1 mm 1 mps 754 mmHg 97%

Tomorrow, 7 July, Tuesday

Time Temperature Precipitation Wind Pressure Humidity
00:00 +25°C° 0 mm 1 mps 753 mmHg 97%
01:00 +25°C° 0 mm 1 mps 753 mmHg 97%
02:00 +23°C° 0 mm 0 mps 752 mmHg 97%
03:00 +23°C° 0 mm 0 mps 752 mmHg 97%
04:00 +22°C° 0 mm 0 mps 752 mmHg 97%
05:00 +22°C° 0 mm 0 mps 752 mmHg 97%
06:00 +23°C° 0 mm 0 mps 753 mmHg 95%
07:00 +24°C° 0 mm 0 mps 753 mmHg 92%
08:00 +25°C° 0 mm 0 mps 754 mmHg 89%
09:00 +26°C° 1 mm 0 mps 753 mmHg 87%
10:00 +29°C° 1 mm 1 mps 753 mmHg 85%
11:00 +30°C° 1 mm 1 mps 753 mmHg 82%
12:00 +30°C° 2.1 mm 1 mps 752 mmHg 83%
13:00 +30°C° 2.1 mm 1 mps 752 mmHg 83%
14:00 +30°C° 2.1 mm 2 mps 752 mmHg 84%
15:00 +29°C° 1.6 mm 2 mps 751 mmHg 87%
16:00 +28°C° 1.6 mm 2 mps 751 mmHg 90%
17:00 +28°C° 1.6 mm 1 mps 751 mmHg 93%
18:00 +27°C° 0.1 mm 1 mps 752 mmHg 94%
19:00 +26°C° 0.1 mm 1 mps 752 mmHg 96%
20:00 +25°C° 0.1 mm 1 mps 753 mmHg 97%
21:00 +25°C° 0.1 mm 1 mps 753 mmHg 97%
22:00 +23°C° 0.1 mm 0 mps 753 mmHg 97%
23:00 +23°C° 0.1 mm 0 mps 753 mmHg 97%

Day after tomorrow, 8 July, Wednesday

Time Temperature Precipitation Wind Pressure Humidity
00:00 +23°C° 0.1 mm 0 mps 753 mmHg 97%
01:00 +23°C° 0.1 mm 0 mps 753 mmHg 97%
02:00 +23°C° 0.1 mm 0 mps 752 mmHg 97%
03:00 +23°C° 0 mm 0 mps 752 mmHg 97%
04:00 +23°C° 0 mm 0 mps 752 mmHg 98%
05:00 +23°C° 0 mm 0 mps 752 mmHg 98%
06:00 +26°C° 0 mm 1 mps 753 mmHg 96%
07:00 +26°C° 0 mm 1 mps 753 mmHg 94%
08:00 +27°C° 0 mm 1 mps 753 mmHg 93%
09:00 +28°C° 0.1 mm 1 mps 753 mmHg 87%
10:00 +29°C° 0.1 mm 1 mps 753 mmHg 82%
11:00 +30°C° 0.1 mm 1 mps 753 mmHg 77%
12:00 +30°C° 0.5 mm 1 mps 752 mmHg 79%
13:00 +30°C° 0.5 mm 2 mps 752 mmHg 82%
14:00 +30°C° 0.5 mm 2 mps 751 mmHg 84%
15:00 +29°C° 1 mm 2 mps 751 mmHg 87%
16:00 +29°C° 1 mm 2 mps 751 mmHg 89%
17:00 +28°C° 1 mm 2 mps 751 mmHg 91%
18:00 +27°C° 0.5 mm 2 mps 752 mmHg 93%
19:00 +26°C° 0.5 mm 1 mps 752 mmHg 95%
20:00 +26°C° 0.5 mm 1 mps 753 mmHg 97%
21:00 +26°C° 0.1 mm 1 mps 753 mmHg 97%
22:00 +26°C° 0.1 mm 1 mps 753 mmHg 97%
23:00 +26°C° 0.1 mm 1 mps 753 mmHg 97%

9 July, Thursday

Time Temperature Precipitation Wind Pressure Humidity
00:00 +25°C° 0 mm 1 mps 753 mmHg 98%
01:00 +25°C° 0 mm 1 mps 752 mmHg 98%
02:00 +25°C° 0 mm 1 mps 752 mmHg 98%
03:00 +25°C° 0.2 mm 1 mps 752 mmHg 98%
04:00 +25°C° 0.2 mm 1 mps 752 mmHg 98%
05:00 +25°C° 0.2 mm 1 mps 752 mmHg 98%
06:00 +26°C° 0.1 mm 1 mps 753 mmHg 95%
07:00 +27°C° 0.1 mm 1 mps 753 mmHg 93%
08:00 +28°C° 0.1 mm 1 mps 754 mmHg 90%
09:00 +28°C° 1.1 mm 1 mps 754 mmHg 89%
10:00 +29°C° 1.1 mm 1 mps 754 mmHg 87%
11:00 +30°C° 1.1 mm 2 mps 753 mmHg 85%
12:00 +29°C° 2.4 mm 2 mps 753 mmHg 86%
13:00 +29°C° 2.4 mm 2 mps 752 mmHg 87%
14:00 +29°C° 2.4 mm 2 mps 752 mmHg 88%
15:00 +28°C° 1.5 mm 2 mps 752 mmHg 90%
16:00 +27°C° 1.5 mm 2 mps 752 mmHg 92%
17:00 +27°C° 1.5 mm 2 mps 752 mmHg 94%
18:00 +26°C° 0.4 mm 2 mps 752 mmHg 95%
19:00 +26°C° 0.4 mm 2 mps 753 mmHg 96%
20:00 +25°C° 0.4 mm 1 mps 754 mmHg 97%
21:00 +25°C° 0.1 mm 1 mps 754 mmHg 97%
22:00 +25°C° 0.1 mm 1 mps 754 mmHg 98%
23:00 +25°C° 0.1 mm 1 mps 754 mmHg 98%

10 July, Friday

Time Temperature Precipitation Wind Pressure Humidity
00:00 +25°C° 1.4 mm 1 mps 753 mmHg 98%
01:00 +25°C° 1.4 mm 1 mps 753 mmHg 98%
02:00 +25°C° 1.4 mm 1 mps 752 mmHg 97%
03:00 +25°C° 2.8 mm 1 mps 752 mmHg 97%
04:00 +25°C° 2.8 mm 1 mps 753 mmHg 98%
05:00 +25°C° 2.8 mm 1 mps 753 mmHg 98%
06:00 +25°C° 2.3 mm 1 mps 753 mmHg 97%
07:00 +25°C° 2.3 mm 1 mps 753 mmHg 97%
08:00 +25°C° 2.3 mm 1 mps 754 mmHg 97%
09:00 +26°C° 2.1 mm 2 mps 753 mmHg 95%
10:00 +27°C° 2.1 mm 2 mps 753 mmHg 93%
11:00 +28°C° 2.1 mm 3 mps 753 mmHg 91%
12:00 +27°C° 2.2 mm 3 mps 753 mmHg 92%
13:00 +27°C° 2.2 mm 3 mps 752 mmHg 93%
14:00 +27°C° 2.2 mm 3 mps 752 mmHg 94%
15:00 +27°C° 1.4 mm 3 mps 752 mmHg 94%
16:00 +26°C° 1.4 mm 2 mps 752 mmHg 94%
17:00 +26°C° 1.4 mm 2 mps 752 mmHg 95%
18:00 +26°C° 1.1 mm 2 mps 753 mmHg 95%
19:00 +25°C° 1.1 mm 2 mps 753 mmHg 96%
20:00 +25°C° 1.1 mm 2 mps 754 mmHg 97%
21:00 +25°C° 2.1 mm 2 mps 754 mmHg 97%
22:00 +25°C° 2.1 mm 2 mps 754 mmHg 97%
23:00 +25°C° 2.1 mm 2 mps 754 mmHg 98%

11 July, Saturday

Time Temperature Precipitation Wind Pressure Humidity
00:00 +25°C° 5.3 mm 2 mps 753 mmHg 98%
01:00 +25°C° 5.3 mm 2 mps 753 mmHg 98%
02:00 +25°C° 5.3 mm 2 mps 752 mmHg 99%
03:00 +25°C° 3.1 mm 1 mps 752 mmHg 99%
04:00 +25°C° 3.1 mm 1 mps 752 mmHg 98%
05:00 +25°C° 3.1 mm 1 mps 752 mmHg 98%
06:00 +25°C° 0.6 mm 1 mps 753 mmHg 98%
07:00 +25°C° 0.6 mm 1 mps 753 mmHg 97%
08:00 +25°C° 0.6 mm 1 mps 754 mmHg 97%
09:00 +26°C° 1 mm 1 mps 753 mmHg 95%
10:00 +27°C° 1 mm 1 mps 753 mmHg 93%
11:00 +27°C° 1 mm 1 mps 753 mmHg 91%
12:00 +28°C° 2 mm 2 mps 753 mmHg 91%
13:00 +28°C° 2 mm 2 mps 752 mmHg 90%
14:00 +28°C° 2 mm 2 mps 752 mmHg 90%
15:00 +28°C° 2.1 mm 2 mps 752 mmHg 91%
16:00 +27°C° 2.1 mm 2 mps 752 mmHg 93%
17:00 +27°C° 2.1 mm 2 mps 752 mmHg 94%
18:00 +26°C° 1.2 mm 2 mps 752 mmHg 95%
19:00 +25°C° 1.2 mm 1 mps 753 mmHg 96%
20:00 +25°C° 1.2 mm 1 mps 753 mmHg 97%
21:00 +25°C° 0.5 mm 1 mps 753 mmHg 97%
22:00 +25°C° 0.5 mm 1 mps 754 mmHg 97%
23:00 +25°C° 0.5 mm 1 mps 754 mmHg 97%
Show more